Buffalo, MN

12:49 PM CDT on May 27, 2017 (GMT -0500)
Buffalo

Weather History for KCFE - January, 2014

Change the Weather History Date:

Thursday, January 9, 2014

  Actual Average (KMIC) Record (KMIC)
Temperature  
Mean Temperature 4 °F -  
Max Temperature 21 °F 22 °F 50 °F (2012)
Min Temperature -13 °F 8 °F -18 °F (1999)
Degree Days  
Heating Degree Days 61    
Moisture  
Dew Point 4 °F    
Average Humidity 75    
Maximum Humidity 88    
Minimum Humidity 64    
Precipitation  
Precipitation 0.00 in - - ()
Sea Level Pressure  
Sea Level Pressure 30.11 in    
Wind  
Wind Speed 6 mph (SSE)    
Max Wind Speed 14 mph    
Max Gust Speed 23 mph    
Visibility 10 miles    
Events      
Averages and records for this station are not official NWS values.
T = Trace of Precipitation, MM = Missing Value Source: NWS Daily Summary

Daily Weather History Graph

Daily Weather History Graph

Search for Another Location

Airport or City:

Trip Planner

Search our weather history database for the weather conditions in past years. The results will help you decide how hot, cold, wet, or windy it might be!

Date:

Astronomy

Jan. 09, 2014 Rise Set
Actual Time 7:53 AM CST 4:52 PM CST
Civil Twilight 7:19 AM CST 5:25 PM CST
Nautical Twilight 6:42 AM CST 6:02 PM CST
Astronomical Twilight 6:07 AM CST 6:37 PM CST
Moon 12:25 PM CST (1/9) 1:54 AM CST (1/9)
Length of Visible Light 10h 05m
Length of Day
8h 59m
Waxing Gibbous, 66% of the Moon is Illuminated
Jan 9
Waxing Gibbous
Jan 15
Full
Jan 23
Last Quarter
Jan 30
New
Feb 6
First Quarter

Hourly Weather History & Observations

Time (CST) Temp. Windchill Dew Point Humidity Pressure Visibility Wind Dir Wind Speed Gust Speed Precip Events Conditions
12:16 AM -13.2 °F -22.9 °F -18.4 °F 77% 30.39 in 10.0 mi SE 3.5 mph - N/A   Clear
12:36 AM -12.1 °F -21.7 °F -16.6 °F 80% 30.37 in 10.0 mi East 3.5 mph - N/A   Mostly Cloudy
12:55 AM -7.8 °F - -12.3 °F 81% 30.37 in 10.0 mi Calm Calm - N/A   Overcast
1:16 AM -7.4 °F - -12.1 °F 80% 30.37 in 10.0 mi Calm Calm - N/A   Overcast
1:36 AM -6.9 °F -17.9 °F -11.6 °F 80% 30.36 in 10.0 mi SSE 4.6 mph - N/A   Overcast
1:55 AM -6.0 °F -16.9 °F -10.5 °F 81% 30.36 in 10.0 mi SSE 4.6 mph - N/A   Overcast
2:16 AM -5.4 °F -18.0 °F -9.8 °F 82% 30.34 in 10.0 mi SE 5.8 mph - N/A   Overcast
2:36 AM -3.5 °F -17.1 °F -7.8 °F 82% 30.33 in 10.0 mi SSE 6.9 mph - N/A   Overcast
2:55 AM -1.8 °F -13.7 °F -6.5 °F 80% 30.33 in 10.0 mi SSE 5.8 mph - N/A   Overcast
3:16 AM -0.9 °F -12.7 °F -6.2 °F 79% 30.31 in 10.0 mi SSE 5.8 mph - N/A   Overcast
3:36 AM -0.6 °F -10.6 °F -6.3 °F 77% 30.31 in 10.0 mi South 4.6 mph - N/A   Overcast
3:55 AM 0.1 °F -7.7 °F -5.8 °F 76% 30.31 in 10.0 mi South 3.5 mph - N/A   Overcast
4:16 AM 1.2 °F -6.4 °F -5.3 °F 74% 30.30 in 10.0 mi SSE 3.5 mph - N/A   Overcast
4:35 AM 1.9 °F -7.6 °F -4.9 °F 73% 30.29 in 10.0 mi SSE 4.6 mph - N/A   Overcast
4:56 AM 2.3 °F -8.8 °F -4.2 °F 74% 30.28 in 10.0 mi SSE 5.8 mph - N/A   Overcast
5:16 AM 3.0 °F -4.4 °F -3.6 °F 74% 30.27 in 10.0 mi SSE 3.5 mph - N/A   Overcast
5:35 AM 3.0 °F -6.4 °F -3.5 °F 74% 30.26 in 10.0 mi SSE 4.6 mph - N/A   Overcast
5:56 AM 3.2 °F -7.8 °F -3.1 °F 75% 30.24 in 10.0 mi SSE 5.8 mph - N/A   Overcast
6:16 AM 3.7 °F -8.4 °F -2.4 °F 76% 30.23 in 10.0 mi SE 6.9 mph - N/A   Overcast
6:35 AM 4.5 °F -4.7 °F -1.8 °F 75% 30.23 in 10.0 mi SSE 4.6 mph - N/A   Overcast
6:56 AM 5.0 °F -5.6 °F -1.5 °F 75% 30.22 in 10.0 mi SSE 5.8 mph - N/A   Overcast
7:16 AM 5.5 °F -6.3 °F -1.1 °F 74% 30.21 in 10.0 mi SSE 6.9 mph - N/A   Overcast
7:35 AM 6.1 °F -4.3 °F -0.6 °F 74% 30.20 in 10.0 mi SSE 5.8 mph - N/A   Overcast
7:56 AM 6.3 °F -6.5 °F -0.6 °F 73% 30.19 in 10.0 mi SSE 8.1 mph - N/A   Mostly Cloudy
8:15 AM 6.6 °F -3.7 °F -0.4 °F 73% 30.19 in 10.0 mi SE 5.8 mph - N/A   Mostly Cloudy
8:36 AM 7.5 °F -5.0 °F 0.3 °F 72% 30.18 in 10.0 mi SSE 8.1 mph - N/A   Overcast
8:56 AM 8.6 °F -4.7 °F 0.3 °F 69% 30.19 in 10.0 mi SSE 9.2 mph - N/A   Scattered Clouds
9:15 AM 8.4 °F -3.9 °F -0.0 °F 68% 30.19 in 10.0 mi SSE 8.1 mph - N/A   Clear
9:36 AM 8.8 °F -1.1 °F -0.0 °F 67% 30.18 in 10.0 mi SSE 5.8 mph - N/A   Clear
9:56 AM 9.5 °F -3.5 °F 0.3 °F 66% 30.18 in 10.0 mi SSE 9.2 mph 16.1 mph N/A   Clear
10:15 AM 10.4 °F -1.5 °F 0.9 °F 65% 30.16 in 10.0 mi SSE 8.1 mph 17.3 mph N/A   Scattered Clouds
10:36 AM 11.5 °F -1.1 °F 1.4 °F 64% 30.16 in 10.0 mi South 9.2 mph 17.3 mph N/A   Scattered Clouds
10:56 AM 12.7 °F -0.4 °F 2.7 °F 64% 30.16 in 10.0 mi South 10.4 mph - N/A   Clear
11:15 AM 13.1 °F -0.7 °F 3.2 °F 65% 30.14 in 10.0 mi South 11.5 mph 17.3 mph N/A   Clear
11:36 AM 13.8 °F 1.0 °F 3.7 °F 64% 30.13 in 10.0 mi South 10.4 mph 17.3 mph N/A   Clear
11:56 AM 14.5 °F 1.9 °F 4.3 °F 64% 30.11 in 10.0 mi SSE 10.4 mph 16.1 mph N/A   Clear
12:16 PM 15.3 °F 1.4 °F 5.5 °F 65% 30.10 in 10.0 mi SSE 12.7 mph 17.3 mph N/A   Scattered Clouds
12:36 PM 15.3 °F 1.4 °F 5.9 °F 67% 30.09 in 10.0 mi SSE 12.7 mph 20.7 mph N/A   Clear
12:56 PM 15.6 °F 2.5 °F 7.7 °F 71% 30.07 in 10.0 mi SSE 11.5 mph 23.0 mph N/A   Scattered Clouds
1:16 PM 16.7 °F 3.8 °F 9.9 °F 74% 30.06 in 10.0 mi South 11.5 mph 19.6 mph N/A   Scattered Clouds
1:36 PM 17.4 °F 3.5 °F 10.8 °F 75% 30.05 in 10.0 mi SSE 13.8 mph - N/A   Scattered Clouds
1:56 PM 18.0 °F 4.8 °F 11.8 °F 77% 30.04 in 10.0 mi SSE 12.7 mph 17.3 mph N/A   Clear
2:36 PM 19.9 °F 9.3 °F 13.1 °F 75% 30.01 in 10.0 mi SSE 9.2 mph 16.1 mph N/A   Clear
2:56 PM 20.3 °F 9.0 °F 13.1 °F 74% 30.01 in 10.0 mi SSE 10.4 mph 16.1 mph N/A   Clear
3:16 PM 20.8 °F 9.7 °F 12.9 °F 71% 30.01 in 10.0 mi SSE 10.4 mph 17.3 mph N/A   Clear
3:36 PM 21.0 °F 9.9 °F 12.6 °F 70% 30.00 in 10.0 mi SSE 10.4 mph 17.3 mph N/A   Clear
3:55 PM 20.8 °F 9.0 °F 12.2 °F 69% 29.99 in 10.0 mi SSE 11.5 mph - N/A   Clear
4:16 PM 20.5 °F 8.0 °F 12.2 °F 70% 29.98 in 10.0 mi SE 12.7 mph 16.1 mph N/A   Clear
5:16 PM 19.4 °F 10.4 °F 11.7 °F 72% 29.96 in 10.0 mi SSE 6.9 mph - N/A   Clear
5:35 PM 18.9 °F 8.0 °F 11.5 °F 73% 29.95 in 10.0 mi SE 9.2 mph - N/A   Clear
5:56 PM 18.7 °F 7.0 °F 11.7 °F 74% 29.94 in 10.0 mi SE 10.4 mph 16.1 mph N/A   Clear
6:16 PM 18.5 °F 6.8 °F 11.7 °F 75% 29.94 in 10.0 mi SSE 10.4 mph 16.1 mph N/A   Clear
6:35 PM 18.3 °F 5.9 °F 11.8 °F 76% 29.93 in 10.0 mi SSE 11.5 mph 19.6 mph N/A   Clear
6:56 PM 18.1 °F 5.0 °F 12.0 °F 77% 29.93 in 10.0 mi SSE 12.7 mph - N/A   Clear
7:16 PM 18.0 °F 4.8 °F 12.4 °F 79% 29.93 in 10.0 mi SSE 12.7 mph 18.4 mph N/A   Clear
7:36 PM 18.0 °F 8.7 °F 12.7 °F 80% 29.93 in 10.0 mi SSE 6.9 mph 17.3 mph N/A   Clear
7:56 PM 17.6 °F 5.7 °F 12.9 °F 82% 29.92 in 10.0 mi SSE 10.4 mph 16.1 mph N/A   Clear
8:16 PM 17.4 °F 6.2 °F 13.1 °F 83% 29.92 in 10.0 mi SSE 9.2 mph - N/A   Clear
8:36 PM 17.4 °F 7.1 °F 13.1 °F 83% 29.92 in 7.0 mi SSE 8.1 mph - N/A   Clear
8:56 PM 17.1 °F 6.6 °F 13.1 °F 84% 29.91 in 7.0 mi SSE 8.1 mph - N/A   Clear
9:16 PM 17.1 °F 5.8 °F 13.1 °F 84% 29.91 in 7.0 mi SSE 9.2 mph - N/A   Clear
9:36 PM 17.2 °F 7.8 °F 13.8 °F 86% 29.91 in 7.0 mi SSE 6.9 mph - N/A   Scattered Clouds
9:56 PM 17.6 °F 8.2 °F 14.0 °F 86% 29.90 in 7.0 mi SSE 6.9 mph 16.1 mph N/A   Mostly Cloudy
10:16 PM 17.8 °F 8.5 °F 14.5 °F 87% 29.90 in 7.0 mi SSE 6.9 mph - N/A   Overcast
10:36 PM 18.3 °F 10.2 °F 14.9 °F 86% 29.90 in 7.0 mi SSE 5.8 mph - N/A   Overcast
10:56 PM 18.0 °F 11.1 °F 14.7 °F 87% 29.89 in 7.0 mi SSE 4.6 mph - N/A   Overcast
11:16 PM 18.0 °F 8.7 °F 14.7 °F 87% 29.88 in 5.0 mi SSE 6.9 mph - N/A   Overcast
11:32 PM 17.8 °F 8.5 °F 14.7 °F 88% 29.88 in 7.0 mi SSE 6.9 mph - N/A   Overcast